Miscellaneous Local Product
Issued by NWS Hastings, NE

Home | Current Version | Previous Version | Text Only | Print | Product List | Glossary Off
Versions: 1 2 3 4 5 6 7 8 9 10 11 12 13 14 15 16 17 18 19 20 21 22 23 24 25 26 27 28 29 30 31 32 33 34 35 36 37 38 39 40 41 42 43 44 45 46 47 48 49 50

000
AXUS43 KGID 050702
MISGRI

GID CWA HOURLY WEATHER ROUNDUP
NATIONAL WEATHER SERVICE HASTINGS NE
200 AM CDT THU MAY 05 2016

NOTE: "FAIR" INDICATES FEW OR NO CLOUDS BELOW 12,000 FEET WITH NO
SIGNIFICANT WEATHER AND/OR OBSTRUCTIONS TO VISIBILITY.

...SOUTH CENTRAL NEBRASKA...

CITY           SKY/WX    TMP DP  RH WIND       PRES   REMARKS
GRAND ISLAND   CLEAR     47  36  65 CALM      30.07F
HASTINGS       CLEAR     46  37  71 CALM      30.07S
KEARNEY        CLEAR     48  39  71 CALM      30.09S
ORD            CLEAR     39  36  89 CALM      30.06F
YORK           CLEAR     46  37  71 CALM      30.06F
AURORA         CLEAR     49  35  58 CALM      30.06F
LEXINGTON      CLEAR     44  40  85 CALM      30.09F
HOLDREGE       CLEAR     47  38  73 E6        30.08S
HEBRON         CLEAR     46  38  76 CALM      30.07R

...NEBRASKA PANHANDLE...

CITY           SKY/WX    TMP DP  RH WIND       PRES   REMARKS
CHADRON        CLEAR     51  41  68 CALM      30.04S
ALLIANCE       CLEAR     46  42  86 S7        30.08S
SCOTTSBLUFF    CLEAR     50  41  71 E9        30.09S
SIDNEY         CLEAR     47  40  76 S8        30.13S

...WESTERN AND NORTH CENTRAL NEBRASKA...

CITY           SKY/WX    TMP DP  RH WIND       PRES   REMARKS
VALENTINE      CLEAR     48  38  68 SW3       30.07S
AINSWORTH      CLEAR     44  37  77 S6        30.08S
ONEILL         CLEAR     49  46  90 CALM      30.07S
BROKEN BOW     CLEAR     39  36  89 CALM      30.08S
IMPERIAL       CLEAR     51  42  71 SE5       30.11R
NORTH PLATTE   CLEAR     43  38  82 NE3       30.09R
MCCOOK         CLEAR     48  40  73 CALM      30.09S

...EASTERN NEBRASKA...

CITY           SKY/WX    TMP DP  RH WIND       PRES   REMARKS
NORFOLK        CLEAR     47  35  63 CALM      30.05S
SO SIOUX CITY  CLEAR     44  38  79 W7        30.03S
TEKAMAH        CLEAR     47  40  76 NW5       30.03R
COLUMBUS       CLEAR     43  30  61 W5        30.06S
ALBION         CLEAR     41  36  83 CALM      30.07S
OMAHA EPPLEY   CLEAR     48  43  82 CALM      30.02S
OFFUTT AFB     CLEAR     47  43  87 W7        30.01S
MILLARD        CLEAR     48  44  85 CALM      30.03R
LINCOLN        CLEAR     45  39  79 CALM      30.06S
NEBRASKA CITY  CLEAR     51  37  57 W7        30.02S
BEATRICE       CLEAR     44  40  86 W3        30.05S
FALLS CITY     CLEAR     46  40  79 W5        30.02

...NORTHERN KANSAS...

CITY           SKY/WX    TMP DP  RH WIND       PRES   REMARKS
GOODLAND       CLEAR     55  42  61 S12       30.12S
HILL CITY      CLEAR     45  41  86 NW3       30.10S
NORTON         SUNNY     48  39  71 SW3       30.09
PHILLIPSBURG   CLEAR     46  43  87 W5        30.09R
SMITH CENTER   CLEAR     43  37  81 N5        30.08F
BELOIT         CLEAR     43  39  87 CALM      30.06S
HAYS           CLEAR     46  37  71 NW5       30.09S
RUSSELL        CLEAR     51  41  68 W5        30.07R
CONCORDIA      CLEAR     50  35  56 NW3       30.06S
SALINA         CLEAR     48  41  76 CALM      30.06S
TOPEKA         CLEAR     48  43  82 CALM      30.03



USA.gov is the U.S. government's official web portal to all federal, state and local government web resources and services.